When you browse on this site, cookies collect data to enhance your experience and personalize the content and advertising you see.
Visit our Privacy Policy to learn more. By continuing to use the site, you agree to this use of cookies and data.
  • In Spain
  • List of Countries
  • For 7 days
  • Water Temperature
  • Weather Map
  • Weather Widgets
  • user-avatar
    Login

    Hourly Weather Dhamar

    Today, 21 January, Tuesday

    Time Temperature Precipitation Wind Pressure Humidity
    00:00 +14°C° 0 mm 1 mps 584 mmHg 51%
    01:00 +14°C° 0 mm 1 mps 584 mmHg 52%
    02:00 +12°C° 0 mm 0 mps 583 mmHg 53%
    03:00 +11°C° 0 mm 0 mps 583 mmHg 58%
    04:00 +11°C° 0 mm 0 mps 583 mmHg 58%
    05:00 +11°C° 0 mm 0 mps 582 mmHg 58%
    06:00 +10°C° 0 mm 0 mps 582 mmHg 59%
    07:00 +13°C° 0 mm 1 mps 583 mmHg 56%
    08:00 +14°C° 0 mm 1 mps 584 mmHg 54%
    09:00 +15°C° 0 mm 1 mps 585 mmHg 52%
    10:00 +16°C° 0 mm 2 mps 585 mmHg 51%
    11:00 +17°C° 0 mm 3 mps 585 mmHg 50%
    12:00 +18°C° 0 mm 3 mps 585 mmHg 50%
    13:00 +18°C° 0 mm 4 mps 585 mmHg 51%
    14:00 +19°C° 0 mm 4 mps 584 mmHg 52%
    15:00 +19°C° 0 mm 4 mps 584 mmHg 53%
    16:00 +18°C° 0 mm 4 mps 583 mmHg 59%
    17:00 +17°C° 0 mm 3 mps 583 mmHg 65%
    18:00 +16°C° 0 mm 3 mps 583 mmHg 71%
    19:00 +16°C° 0 mm 2 mps 583 mmHg 74%
    20:00 +15°C° 0 mm 1 mps 583 mmHg 76%
    21:00 +15°C° 0 mm 1 mps 584 mmHg 78%
    22:00 +14°C° 0 mm 1 mps 583 mmHg 81%
    23:00 +14°C° 0 mm 1 mps 583 mmHg 83%

    Tomorrow, 22 January, Wednesday

    Time Temperature Precipitation Wind Pressure Humidity
    00:00 +14°C° 0 mm 1 mps 583 mmHg 85%
    01:00 +13°C° 0.1 mm 1 mps 582 mmHg 87%
    02:00 +13°C° 0.1 mm 1 mps 582 mmHg 89%
    03:00 +13°C° 0.1 mm 1 mps 582 mmHg 91%
    04:00 +12°C° 0.1 mm 1 mps 582 mmHg 90%
    05:00 +12°C° 0.1 mm 1 mps 582 mmHg 89%
    06:00 +12°C° 0.1 mm 1 mps 582 mmHg 88%
    07:00 +13°C° 0.1 mm 1 mps 583 mmHg 84%
    08:00 +13°C° 0.1 mm 2 mps 583 mmHg 80%
    09:00 +14°C° 0.1 mm 2 mps 584 mmHg 75%
    10:00 +14°C° 0 mm 3 mps 584 mmHg 69%
    11:00 +16°C° 0 mm 3 mps 584 mmHg 62%
    12:00 +18°C° 0 mm 4 mps 584 mmHg 56%
    13:00 +18°C° 0 mm 4 mps 584 mmHg 58%
    14:00 +18°C° 0 mm 4 mps 583 mmHg 60%
    15:00 +18°C° 0 mm 4 mps 583 mmHg 62%
    16:00 +17°C° 0.1 mm 4 mps 583 mmHg 67%
    17:00 +16°C° 0.1 mm 3 mps 582 mmHg 73%
    18:00 +14°C° 0.1 mm 3 mps 582 mmHg 79%
    19:00 +15°C° 0.1 mm 2 mps 583 mmHg 81%
    20:00 +15°C° 0.1 mm 2 mps 583 mmHg 83%
    21:00 +14°C° 0.1 mm 2 mps 583 mmHg 85%
    22:00 +14°C° 0 mm 1 mps 583 mmHg 86%
    23:00 +14°C° 0 mm 1 mps 583 mmHg 86%

    Day after tomorrow, 23 January, Thursday

    Time Temperature Precipitation Wind Pressure Humidity
    00:00 +14°C° 0 mm 1 mps 582 mmHg 87%
    01:00 +13°C° 0.1 mm 1 mps 582 mmHg 88%
    02:00 +13°C° 0.1 mm 1 mps 582 mmHg 88%
    03:00 +13°C° 0.1 mm 2 mps 581 mmHg 89%
    04:00 +13°C° 0 mm 1 mps 582 mmHg 90%
    05:00 +13°C° 0 mm 1 mps 582 mmHg 91%
    06:00 +12°C° 0 mm 1 mps 582 mmHg 92%
    07:00 +13°C° 0 mm 1 mps 583 mmHg 85%
    08:00 +14°C° 0 mm 2 mps 583 mmHg 79%
    09:00 +15°C° 0 mm 2 mps 584 mmHg 73%
    10:00 +15°C° 0.2 mm 2 mps 584 mmHg 77%
    11:00 +15°C° 0.2 mm 2 mps 583 mmHg 80%
    12:00 +14°C° 0.2 mm 3 mps 583 mmHg 83%
    13:00 +13°C° 0.3 mm 3 mps 583 mmHg 85%
    14:00 +13°C° 0.3 mm 3 mps 582 mmHg 86%
    15:00 +13°C° 0.3 mm 3 mps 582 mmHg 87%
    16:00 +14°C° 0.1 mm 2 mps 582 mmHg 88%
    17:00 +14°C° 0.1 mm 2 mps 582 mmHg 89%
    18:00 +13°C° 0.1 mm 2 mps 582 mmHg 89%
    19:00 +13°C° 0 mm 2 mps 583 mmHg 89%
    20:00 +13°C° 0 mm 1 mps 583 mmHg 89%
    21:00 +13°C° 0 mm 1 mps 583 mmHg 89%
    22:00 +13°C° 0 mm 1 mps 583 mmHg 89%
    23:00 +12°C° 0 mm 0 mps 583 mmHg 90%

    24 January, Friday

    Time Temperature Precipitation Wind Pressure Humidity
    00:00 +11°C° 0 mm 0 mps 583 mmHg 91%
    01:00 +12°C° 0 mm 1 mps 583 mmHg 92%
    02:00 +12°C° 0 mm 1 mps 582 mmHg 93%
    03:00 +12°C° 0 mm 1 mps 582 mmHg 94%
    04:00 +12°C° 0 mm 1 mps 582 mmHg 92%
    05:00 +12°C° 0 mm 1 mps 583 mmHg 90%
    06:00 +12°C° 0 mm 1 mps 583 mmHg 88%
    07:00 +13°C° 0 mm 1 mps 584 mmHg 84%
    08:00 +14°C° 0 mm 1 mps 585 mmHg 80%
    09:00 +15°C° 0 mm 1 mps 585 mmHg 75%
    10:00 +15°C° 0.1 mm 2 mps 585 mmHg 73%
    11:00 +16°C° 0.1 mm 2 mps 585 mmHg 71%
    12:00 +17°C° 0.1 mm 3 mps 585 mmHg 68%
    13:00 +17°C° 0.2 mm 3 mps 585 mmHg 67%
    14:00 +17°C° 0.2 mm 4 mps 584 mmHg 65%
    15:00 +18°C° 0.2 mm 4 mps 584 mmHg 64%
    16:00 +17°C° 0.1 mm 4 mps 584 mmHg 67%
    17:00 +16°C° 0.1 mm 3 mps 584 mmHg 70%
    18:00 +16°C° 0.1 mm 3 mps 584 mmHg 73%
    19:00 +15°C° 0 mm 2 mps 584 mmHg 75%
    20:00 +15°C° 0 mm 1 mps 585 mmHg 77%
    21:00 +15°C° 0 mm 1 mps 585 mmHg 79%
    22:00 +14°C° 0 mm 1 mps 585 mmHg 79%
    23:00 +13°C° 0 mm 0 mps 585 mmHg 80%

    25 January, Saturday

    Time Temperature Precipitation Wind Pressure Humidity
    00:00 +13°C° 0 mm 0 mps 585 mmHg 80%
    01:00 +13°C° 0 mm 0 mps 584 mmHg 82%
    02:00 +12°C° 0 mm 0 mps 584 mmHg 85%
    03:00 +12°C° 0 mm 0 mps 584 mmHg 88%
    04:00 +12°C° 0 mm 0 mps 584 mmHg 87%
    05:00 +11°C° 0 mm 0 mps 584 mmHg 87%
    06:00 +11°C° 0 mm 0 mps 584 mmHg 87%
    07:00 +13°C° 0 mm 0 mps 585 mmHg 79%
    08:00 +14°C° 0 mm 0 mps 586 mmHg 70%
    09:00 +15°C° 0 mm 0 mps 587 mmHg 62%
    10:00 +18°C° 0 mm 1 mps 587 mmHg 58%
    11:00 +18°C° 0 mm 2 mps 587 mmHg 53%
    12:00 +19°C° 0 mm 3 mps 587 mmHg 49%
    13:00 +19°C° 0.1 mm 3 mps 586 mmHg 53%
    14:00 +19°C° 0.1 mm 3 mps 586 mmHg 57%
    15:00 +19°C° 0.1 mm 4 mps 585 mmHg 60%
    16:00 +18°C° 0.1 mm 3 mps 585 mmHg 65%
    17:00 +17°C° 0.1 mm 2 mps 585 mmHg 70%
    18:00 +16°C° 0.1 mm 2 mps 585 mmHg 75%
    19:00 +16°C° 0.2 mm 1 mps 585 mmHg 72%
    20:00 +16°C° 0.2 mm 1 mps 586 mmHg 69%
    21:00 +16°C° 0.2 mm 1 mps 586 mmHg 66%
    22:00 +16°C° 0 mm 1 mps 586 mmHg 66%
    23:00 +16°C° 0 mm 1 mps 586 mmHg 66%

    26 January, Sunday

    Time Temperature Precipitation Wind Pressure Humidity
    00:00 +15°C° 0 mm 1 mps 585 mmHg 65%
    01:00 +15°C° 0 mm 1 mps 585 mmHg 68%
    02:00 +14°C° 0 mm 1 mps 585 mmHg 71%
    03:00 +14°C° 0 mm 1 mps 584 mmHg 74%
    04:00 +13°C° 0 mm 1 mps 584 mmHg 75%
    05:00 +13°C° 0 mm 1 mps 585 mmHg 76%
    06:00 +13°C° 0 mm 1 mps 585 mmHg 77%
    07:00 +13°C° 0 mm 1 mps 585 mmHg 74%
    08:00 +14°C° 0 mm 1 mps 586 mmHg 70%
    09:00 +15°C° 0 mm 1 mps 587 mmHg 67%
    10:00 +16°C° 0 mm 2 mps 587 mmHg 64%
    11:00 +17°C° 0 mm 2 mps 587 mmHg 61%
    12:00 +18°C° 0 mm 3 mps 587 mmHg 57%
    13:00 +18°C° 0.1 mm 3 mps 587 mmHg 59%
    14:00 +18°C° 0.1 mm 3 mps 586 mmHg 61%
    15:00 +18°C° 0.1 mm 3 mps 586 mmHg 63%
    16:00 +17°C° 0.1 mm 3 mps 585 mmHg 67%
    17:00 +17°C° 0.1 mm 2 mps 585 mmHg 71%
    18:00 +16°C° 0.1 mm 2 mps 585 mmHg 75%
    19:00 +16°C° 0.1 mm 2 mps 585 mmHg 75%
    20:00 +15°C° 0.1 mm 2 mps 586 mmHg 76%
    21:00 +15°C° 0.1 mm 2 mps 586 mmHg 76%
    22:00 +15°C° 0 mm 1 mps 585 mmHg 78%
    23:00 +14°C° 0 mm 1 mps 585 mmHg 79%
    Show more